Time,TemperatureF,DewpointF,PressureIn,WindDirection,WindDirectionDegrees,WindSpeedMPH,WindSpeedGustMPH,Humidity,HourlyPrecipIn,Conditions,Clouds,dailyrainin,SoftwareType,DateUTC
2013-09-13 00:01:00,70.6,63.4,29.72,West,281,0.0,0.0,78,0.00,,,0.00,Wunderground v.1.15,2013-09-13 04:01:00,
2013-09-13 00:02:00,70.5,63.3,29.72,West,281,0.0,0.0,78,0.00,,,0.00,Wunderground v.1.15,2013-09-13 04:02:00,
2013-09-13 00:09:00,70.0,63.2,29.72,West,281,0.0,0.0,79,0.00,,,0.00,Wunderground v.1.15,2013-09-13 04:09:00,
2013-09-13 00:10:00,70.0,63.2,29.72,West,281,0.0,0.0,79,0.00,,,0.00,Wunderground v.1.15,2013-09-13 04:10:00,
2013-09-13 00:12:00,69.8,63.0,29.72,West,281,0.0,0.0,79,0.00,,,0.00,Wunderground v.1.15,2013-09-13 04:12:00,
2013-09-13 00:18:00,69.3,62.9,29.72,West,281,0.0,1.0,80,0.00,,,0.00,Wunderground v.1.15,2013-09-13 04:18:00,
2013-09-13 00:29:00,69.9,63.4,29.72,WNW,287,1.0,1.0,80,0.00,,,0.00,Wunderground v.1.15,2013-09-13 04:29:00,
2013-09-13 00:31:00,70.0,63.2,29.72,WNW,287,1.0,1.0,79,0.00,,,0.00,Wunderground v.1.15,2013-09-13 04:31:00,
2013-09-13 00:36:00,69.9,63.1,29.72,WNW,287,0.0,2.0,79,0.00,,,0.00,Wunderground v.1.15,2013-09-13 04:36:00,
2013-09-13 00:41:00,69.9,63.1,29.72,WNW,287,0.0,0.0,79,0.00,,,0.00,Wunderground v.1.15,2013-09-13 04:41:00,
2013-09-13 00:46:00,69.6,63.2,29.72,WNW,287,0.0,0.0,80,0.00,,,0.00,Wunderground v.1.15,2013-09-13 04:46:00,
2013-09-13 00:52:00,69.3,62.9,29.71,WNW,287,0.0,0.0,80,0.00,,,0.00,Wunderground v.1.15,2013-09-13 04:52:00,
2013-09-13 00:57:00,69.0,62.6,29.71,WNW,287,0.0,0.0,80,0.00,,,0.00,Wunderground v.1.15,2013-09-13 04:57:00,
2013-09-13 01:02:00,68.9,62.8,29.71,WNW,287,0.0,0.0,81,0.00,,,0.00,Wunderground v.1.15,2013-09-13 05:02:00,
2013-09-13 01:07:00,68.5,62.4,29.71,WNW,287,0.0,0.0,81,0.00,,,0.00,Wunderground v.1.15,2013-09-13 05:07:00,
2013-09-13 01:13:00,68.2,62.5,29.71,WNW,287,0.0,0.0,82,0.00,,,0.00,Wunderground v.1.15,2013-09-13 05:13:00,
2013-09-13 01:18:00,68.1,62.7,29.71,WNW,287,0.0,0.0,83,0.00,,,0.00,Wunderground v.1.15,2013-09-13 05:18:00,
2013-09-13 01:24:00,68.1,62.4,29.71,WNW,287,0.0,0.0,82,0.00,,,0.00,Wunderground v.1.15,2013-09-13 05:24:00,
2013-09-13 01:29:00,68.0,62.6,29.71,WNW,287,0.0,0.0,83,0.00,,,0.00,Wunderground v.1.15,2013-09-13 05:29:00,
2013-09-13 01:36:00,67.7,62.3,29.71,WNW,287,0.0,0.0,83,0.00,,,0.00,Wunderground v.1.15,2013-09-13 05:36:00,
2013-09-13 01:41:00,67.3,62.0,29.71,WNW,287,0.0,0.0,83,0.00,,,0.00,Wunderground v.1.15,2013-09-13 05:41:00,
2013-09-13 01:47:00,66.7,61.7,29.71,WNW,287,0.0,0.0,84,0.00,,,0.00,Wunderground v.1.15,2013-09-13 05:47:00,
2013-09-13 01:53:00,66.2,61.2,29.71,WNW,287,0.0,0.0,84,0.00,,,0.00,Wunderground v.1.15,2013-09-13 05:53:00,
2013-09-13 01:58:00,65.7,60.7,29.71,WNW,287,0.0,0.0,84,0.00,,,0.00,Wunderground v.1.15,2013-09-13 05:58:00,
2013-09-13 02:04:00,65.1,60.5,29.71,WNW,287,0.0,0.0,85,0.00,,,0.00,Wunderground v.1.15,2013-09-13 06:04:00,
2013-09-13 02:09:00,64.9,60.9,29.70,WNW,287,0.0,0.0,87,0.00,,,0.00,Wunderground v.1.15,2013-09-13 06:09:00,
2013-09-13 02:14:00,65.0,61.7,29.70,WNW,287,0.0,0.0,89,0.00,,,0.00,Wunderground v.1.15,2013-09-13 06:14:00,
2013-09-13 02:19:00,65.1,61.8,29.69,WNW,287,0.0,0.0,89,0.00,,,0.00,Wunderground v.1.15,2013-09-13 06:19:00,
2013-09-13 02:25:00,65.2,61.6,29.69,WNW,288,0.0,2.0,88,0.00,,,0.00,Wunderground v.1.15,2013-09-13 06:25:00,
2013-09-13 02:31:00,64.6,61.0,29.69,WNW,288,0.0,0.0,88,0.00,,,0.00,Wunderground v.1.15,2013-09-13 06:31:00,
2013-09-13 02:37:00,64.1,60.5,29.69,WNW,288,0.0,0.0,88,0.00,,,0.00,Wunderground v.1.15,2013-09-13 06:37:00,
2013-09-13 02:43:00,63.9,60.6,29.70,WNW,288,0.0,0.0,89,0.00,,,0.00,Wunderground v.1.15,2013-09-13 06:43:00,
2013-09-13 02:50:00,63.8,60.5,29.70,WNW,288,0.0,0.0,89,0.00,,,0.00,Wunderground v.1.15,2013-09-13 06:50:00,
2013-09-13 02:55:00,64.6,61.6,29.70,NW,304,1.0,2.0,90,0.00,,,0.00,Wunderground v.1.15,2013-09-13 06:55:00,
2013-09-13 03:00:00,66.5,62.8,29.70,WNW,289,3.0,3.0,88,0.00,,,0.00,Wunderground v.1.15,2013-09-13 07:00:00,
2013-09-13 03:07:00,66.8,62.5,29.69,NW,319,3.0,5.0,86,0.00,,,0.00,Wunderground v.1.15,2013-09-13 07:07:00,
2013-09-13 03:12:00,66.9,62.6,29.69,NW,304,3.0,8.0,86,0.00,,,0.00,Wunderground v.1.15,2013-09-13 07:12:00,
2013-09-13 03:17:00,66.9,62.6,29.69,NW,309,3.0,8.0,86,0.00,,,0.00,Wunderground v.1.15,2013-09-13 07:17:00,
2013-09-13 03:23:00,67.0,62.3,29.70,NW,322,2.0,3.0,85,0.00,,,0.00,Wunderground v.1.15,2013-09-13 07:23:00,
2013-09-13 03:29:00,67.0,62.3,29.70,NW,322,0.0,3.0,85,0.00,,,0.00,Wunderground v.1.15,2013-09-13 07:29:00,
2013-09-13 03:39:00,67.0,62.3,29.70,NW,322,0.0,0.0,85,0.00,,,0.00,Wunderground v.1.15,2013-09-13 07:39:00,
2013-09-13 03:45:00,67.0,62.3,29.70,NW,322,0.0,0.0,85,0.00,,,0.00,Wunderground v.1.15,2013-09-13 07:45:00,
2013-09-13 03:50:00,67.0,62.7,29.70,NW,322,0.0,0.0,86,0.00,,,0.00,Wunderground v.1.15,2013-09-13 07:50:00,
2013-09-13 03:55:00,66.9,62.6,29.70,NW,322,0.0,0.0,86,0.00,,,0.00,Wunderground v.1.15,2013-09-13 07:55:00,
2013-09-13 04:05:00,66.8,61.1,29.71,NW,322,0.0,1.0,82,0.00,,,0.00,Wunderground v.1.15,2013-09-13 08:05:00,
2013-09-13 04:10:00,66.9,60.5,29.71,NNE,17,1.0,2.0,80,0.00,,,0.00,Wunderground v.1.15,2013-09-13 08:10:00,
2013-09-13 04:15:00,66.9,59.8,29.71,NNW,342,1.0,5.0,78,0.00,,,0.00,Wunderground v.1.15,2013-09-13 08:15:00,
2013-09-13 04:22:00,66.8,59.0,29.71,NW,314,3.0,5.0,76,0.00,,,0.00,Wunderground v.1.15,2013-09-13 08:22:00,
2013-09-13 04:27:00,67.0,58.8,29.71,NW,318,3.0,5.0,75,0.00,,,0.00,Wunderground v.1.15,2013-09-13 08:27:00,
2013-09-13 04:32:00,66.9,58.7,29.71,NNW,339,3.0,7.0,75,0.00,,,0.00,Wunderground v.1.15,2013-09-13 08:32:00,
2013-09-13 04:37:00,66.9,58.7,29.72,NW,317,3.0,7.0,75,0.00,,,0.00,Wunderground v.1.15,2013-09-13 08:37:00,
2013-09-13 04:44:00,66.7,58.9,29.72,NW,314,2.0,7.0,76,0.00,,,0.00,Wunderground v.1.15,2013-09-13 08:44:00,
2013-09-13 04:49:00,66.4,59.0,29.72,NW,314,2.0,7.0,77,0.00,,,0.00,Wunderground v.1.15,2013-09-13 08:49:00,
2013-09-13 04:57:00,66.2,58.8,29.73,NW,314,2.0,7.0,77,0.00,,,0.00,Wunderground v.1.15,2013-09-13 08:57:00,
2013-09-13 05:03:00,66.2,58.4,29.73,NW,314,0.0,7.0,76,0.00,,,0.00,Wunderground v.1.15,2013-09-13 09:03:00,
2013-09-13 05:08:00,66.2,59.1,29.73,NW,314,0.0,7.0,78,0.00,,,0.00,Wunderground v.1.15,2013-09-13 09:08:00,
2013-09-13 05:13:00,66.1,59.0,29.73,NW,314,0.0,7.0,78,0.00,,,0.00,Wunderground v.1.15,2013-09-13 09:13:00,
2013-09-13 05:18:00,65.8,59.1,29.73,NW,314,0.0,7.0,79,0.00,,,0.00,Wunderground v.1.15,2013-09-13 09:18:00,
2013-09-13 05:24:00,65.7,58.7,29.73,NW,314,0.0,7.0,78,0.00,,,0.00,Wunderground v.1.15,2013-09-13 09:24:00,
2013-09-13 05:29:00,65.6,58.6,29.73,NW,314,0.0,7.0,78,0.00,,,0.00,Wunderground v.1.15,2013-09-13 09:29:00,
2013-09-13 05:36:00,65.9,58.5,29.72,NNE,13,1.0,7.0,77,0.00,,,0.00,Wunderground v.1.15,2013-09-13 09:36:00,
2013-09-13 05:42:00,66.0,58.6,29.73,North,5,1.0,7.0,77,0.00,,,0.00,Wunderground v.1.15,2013-09-13 09:42:00,
2013-09-13 05:47:00,65.8,59.1,29.73,North,5,0.0,7.0,79,0.00,,,0.00,Wunderground v.1.15,2013-09-13 09:47:00,
2013-09-13 05:52:00,65.6,58.6,29.73,North,5,0.0,7.0,78,0.00,,,0.00,Wunderground v.1.15,2013-09-13 09:52:00,
2013-09-13 05:57:00,65.4,58.7,29.72,North,5,0.0,7.0,79,0.00,,,0.00,Wunderground v.1.15,2013-09-13 09:57:00,
2013-09-13 06:02:00,65.3,58.6,29.72,North,5,0.0,7.0,79,0.00,,,0.00,Wunderground v.1.15,2013-09-13 10:02:00,
2013-09-13 06:09:00,65.1,58.8,29.72,North,5,0.0,7.0,80,0.00,,,0.00,Wunderground v.1.15,2013-09-13 10:09:00,
2013-09-13 06:14:00,65.0,58.7,29.72,North,5,0.0,7.0,80,0.00,,,0.00,Wunderground v.1.15,2013-09-13 10:14:00,
2013-09-13 06:19:00,64.9,58.6,29.72,North,5,0.0,7.0,80,0.00,,,0.00,Wunderground v.1.15,2013-09-13 10:19:00,
2013-09-13 06:24:00,64.9,58.9,29.72,North,5,0.0,7.0,81,0.00,,,0.00,Wunderground v.1.15,2013-09-13 10:24:00,
2013-09-13 06:30:00,64.8,59.2,29.72,North,5,0.0,7.0,82,0.00,,,0.00,Wunderground v.1.15,2013-09-13 10:30:00,
2013-09-13 06:35:00,64.6,59.0,29.73,North,5,0.0,7.0,82,0.00,,,0.00,Wunderground v.1.15,2013-09-13 10:35:00,
2013-09-13 06:41:00,64.5,58.9,29.73,North,5,0.0,7.0,82,0.00,,,0.00,Wunderground v.1.15,2013-09-13 10:41:00,
2013-09-13 06:46:00,64.3,59.0,29.73,North,5,0.0,7.0,83,0.00,,,0.00,Wunderground v.1.15,2013-09-13 10:46:00,
2013-09-13 06:51:00,64.0,58.7,29.73,North,5,0.0,7.0,83,0.00,,,0.00,Wunderground v.1.15,2013-09-13 10:51:00,
2013-09-13 06:56:00,63.8,58.5,29.73,North,5,0.0,7.0,83,0.00,,,0.00,Wunderground v.1.15,2013-09-13 10:56:00,
2013-09-13 07:02:00,63.7,58.8,29.74,NW,323,0.0,7.0,84,0.00,,,0.00,Wunderground v.1.15,2013-09-13 11:02:00,
2013-09-13 07:08:00,64.0,58.7,29.74,WNW,292,2.0,7.0,83,0.00,,,0.00,Wunderground v.1.15,2013-09-13 11:08:00,
2013-09-13 07:14:00,64.1,58.5,29.74,NW,312,2.0,7.0,82,0.00,,,0.00,Wunderground v.1.15,2013-09-13 11:14:00,
2013-09-13 07:19:00,64.1,58.5,29.74,NW,312,2.0,7.0,82,0.00,,,0.00,Wunderground v.1.15,2013-09-13 11:19:00,
2013-09-13 07:25:00,64.0,58.7,29.75,WNW,290,2.0,7.0,83,0.00,,,0.00,Wunderground v.1.15,2013-09-13 11:25:00,
2013-09-13 07:30:00,64.0,58.7,29.75,WNW,290,2.0,7.0,83,0.00,,,0.00,Wunderground v.1.15,2013-09-13 11:30:00,
2013-09-13 07:36:00,63.8,58.9,29.75,WNW,286,3.0,7.0,84,0.00,,,0.00,Wunderground v.1.15,2013-09-13 11:36:00,
2013-09-13 07:41:00,63.6,59.0,29.75,WNW,300,4.0,7.0,85,0.00,,,0.00,Wunderground v.1.15,2013-09-13 11:41:00,
2013-09-13 07:46:00,63.4,58.8,29.75,WNW,292,5.0,7.0,85,0.00,,,0.00,Wunderground v.1.15,2013-09-13 11:46:00,
2013-09-13 07:51:00,63.3,59.0,29.74,NW,309,4.0,7.0,86,0.00,,,0.00,Wunderground v.1.15,2013-09-13 11:51:00,
2013-09-13 07:57:00,63.3,59.0,29.74,WNW,300,3.0,7.0,86,0.00,,,0.00,Wunderground v.1.15,2013-09-13 11:57:00,
2013-09-13 08:02:00,63.2,58.9,29.74,WNW,296,4.0,8.0,86,0.00,,,0.00,Wunderground v.1.15,2013-09-13 12:02:00,
2013-09-13 08:07:00,63.2,58.6,29.75,WNW,298,5.0,8.0,85,0.00,,,0.00,Wunderground v.1.15,2013-09-13 12:07:00,
2013-09-13 08:12:00,63.3,58.7,29.75,WNW,291,4.0,7.0,85,0.00,,,0.00,Wunderground v.1.15,2013-09-13 12:12:00,
2013-09-13 08:17:00,63.6,58.3,29.75,WNW,296,4.0,8.0,83,0.00,,,0.00,Wunderground v.1.15,2013-09-13 12:17:00,
2013-09-13 08:22:00,63.8,58.5,29.75,WNW,300,5.0,7.0,83,0.00,,,0.00,Wunderground v.1.15,2013-09-13 12:22:00,
2013-09-13 08:28:00,63.9,58.3,29.75,NW,319,5.0,7.0,82,0.00,,,0.00,Wunderground v.1.15,2013-09-13 12:28:00,
2013-09-13 08:33:00,64.0,58.1,29.75,NW,311,6.0,7.0,81,0.00,,,0.00,Wunderground v.1.15,2013-09-13 12:33:00,
2013-09-13 08:38:00,64.1,58.1,29.76,WNW,286,6.0,8.0,81,0.00,,,0.00,Wunderground v.1.15,2013-09-13 12:38:00,
2013-09-13 08:43:00,64.1,58.1,29.76,WNW,303,5.0,7.0,81,0.00,,,0.00,Wunderground v.1.15,2013-09-13 12:43:00,
2013-09-13 08:48:00,64.5,58.5,29.76,West,280,5.0,7.0,81,0.00,,,0.00,Wunderground v.1.15,2013-09-13 12:48:00,
2013-09-13 08:53:00,65.6,58.9,29.76,NW,314,5.0,9.0,79,0.00,,,0.00,Wunderground v.1.15,2013-09-13 12:53:00,
2013-09-13 08:58:00,66.0,59.3,29.76,North,355,5.0,10.0,79,0.00,,,0.00,Wunderground v.1.15,2013-09-13 12:58:00,
2013-09-13 09:03:00,66.5,59.1,29.76,NW,306,5.0,7.0,77,0.00,,,0.00,Wunderground v.1.15,2013-09-13 13:03:00,
2013-09-13 09:08:00,67.2,59.4,29.76,NNW,329,4.0,7.0,76,0.00,,,0.00,Wunderground v.1.15,2013-09-13 13:08:00,
2013-09-13 09:14:00,67.1,58.2,29.76,WNW,293,5.0,10.0,73,0.00,,,0.00,Wunderground v.1.15,2013-09-13 13:14:00,
2013-09-13 09:19:00,67.3,58.0,29.76,North,355,6.0,10.0,72,0.00,,,0.00,Wunderground v.1.15,2013-09-13 13:19:00,
2013-09-13 09:24:00,67.5,58.2,29.76,North,355,5.0,7.0,72,0.00,,,0.00,Wunderground v.1.15,2013-09-13 13:24:00,
2013-09-13 09:30:00,68.0,57.0,29.76,NNW,329,4.0,7.0,68,0.00,,,0.00,Wunderground v.1.15,2013-09-13 13:30:00,
2013-09-13 09:35:00,68.0,57.0,29.77,WNW,301,4.0,9.0,68,0.00,,,0.00,Wunderground v.1.15,2013-09-13 13:35:00,
2013-09-13 09:40:00,68.0,56.6,29.77,WNW,295,4.0,7.0,67,0.00,,,0.00,Wunderground v.1.15,2013-09-13 13:40:00,
2013-09-13 09:45:00,68.4,57.0,29.77,NNW,338,4.0,7.0,67,0.00,,,0.00,Wunderground v.1.15,2013-09-13 13:45:00,
2013-09-13 09:50:00,68.6,56.8,29.77,North,355,4.0,4.0,66,0.00,,,0.00,Wunderground v.1.15,2013-09-13 13:50:00,
2013-09-13 09:56:00,69.0,56.3,29.78,WNW,283,6.0,13.0,64,0.00,,,0.00,Wunderground v.1.15,2013-09-13 13:56:00,
2013-09-13 10:02:00,68.7,55.6,29.78,North,350,9.0,11.0,63,0.00,,,0.00,Wunderground v.1.15,2013-09-13 14:02:00,
2013-09-13 10:07:00,68.6,55.9,29.78,NNW,339,10.0,13.0,64,0.00,,,0.00,Wunderground v.1.15,2013-09-13 14:07:00,
2013-09-13 10:12:00,68.9,55.8,29.78,West,278,8.0,9.0,63,0.00,,,0.00,Wunderground v.1.15,2013-09-13 14:12:00,
2013-09-13 10:17:00,69.2,55.6,29.78,NNW,327,6.0,9.0,62,0.00,,,0.00,Wunderground v.1.15,2013-09-13 14:17:00,
2013-09-13 10:23:00,69.4,55.8,29.78,WNW,288,6.0,10.0,62,0.00,,,0.00,Wunderground v.1.15,2013-09-13 14:23:00,
2013-09-13 10:28:00,69.5,55.0,29.78,NNW,329,7.0,10.0,60,0.00,,,0.00,Wunderground v.1.15,2013-09-13 14:28:00,
2013-09-13 10:33:00,69.9,54.9,29.78,NW,319,7.0,15.0,59,0.00,,,0.00,Wunderground v.1.15,2013-09-13 14:33:00,
2013-09-13 10:39:00,70.0,55.0,29.78,NW,319,6.0,15.0,59,0.00,,,0.00,Wunderground v.1.15,2013-09-13 14:39:00,
2013-09-13 10:44:00,70.1,54.6,29.78,NW,304,6.0,8.0,58,0.00,,,0.00,Wunderground v.1.15,2013-09-13 14:44:00,
2013-09-13 10:49:00,70.1,54.2,29.78,North,5,7.0,14.0,57,0.00,,,0.00,Wunderground v.1.15,2013-09-13 14:49:00,
2013-09-13 10:55:00,70.4,54.9,29.78,NNW,341,7.0,9.0,58,0.00,,,0.00,Wunderground v.1.15,2013-09-13 14:55:00,
2013-09-13 11:00:00,70.4,54.0,29.78,NW,304,7.0,7.0,56,0.00,,,0.00,Wunderground v.1.15,2013-09-13 15:00:00,
2013-09-13 11:05:00,70.7,54.2,29.79,NNW,348,6.0,7.0,56,0.00,,,0.00,Wunderground v.1.15,2013-09-13 15:05:00,
2013-09-13 11:10:00,71.5,54.5,29.78,WNW,298,5.0,7.0,55,0.00,,,0.00,Wunderground v.1.15,2013-09-13 15:10:00,
2013-09-13 11:16:00,71.6,56.0,29.79,NW,304,4.0,10.0,58,0.00,,,0.00,Wunderground v.1.15,2013-09-13 15:16:00,
2013-09-13 11:21:00,71.7,56.1,29.79,West,279,6.0,8.0,58,0.00,,,0.00,Wunderground v.1.15,2013-09-13 15:21:00,
2013-09-13 11:27:00,72.1,53.0,29.79,NW,315,7.0,8.0,51,0.00,,,0.00,Wunderground v.1.15,2013-09-13 15:27:00,
2013-09-13 11:32:00,72.2,53.6,29.79,North,355,6.0,8.0,52,0.00,,,0.00,Wunderground v.1.15,2013-09-13 15:32:00,
2013-09-13 11:37:00,72.6,54.0,29.78,NW,317,6.0,10.0,52,0.00,,,0.00,Wunderground v.1.15,2013-09-13 15:37:00,
2013-09-13 11:42:00,72.5,52.8,29.79,WNW,301,5.0,7.0,50,0.00,,,0.00,Wunderground v.1.15,2013-09-13 15:42:00,
2013-09-13 11:48:00,72.9,53.7,29.79,North,5,6.0,9.0,51,0.00,,,0.00,Wunderground v.1.15,2013-09-13 15:48:00,
2013-09-13 11:53:00,73.1,53.4,29.79,West,281,7.0,11.0,50,0.00,,,0.00,Wunderground v.1.15,2013-09-13 15:53:00,
2013-09-13 11:59:00,73.0,52.1,29.78,WNW,292,7.0,11.0,48,0.00,,,0.00,Wunderground v.1.15,2013-09-13 15:59:00,
2013-09-13 12:05:00,73.2,52.9,29.78,NNW,329,6.0,9.0,49,0.00,,,0.00,Wunderground v.1.15,2013-09-13 16:05:00,
2013-09-13 12:11:00,73.3,53.5,29.78,NNW,336,5.0,7.0,50,0.00,,,0.00,Wunderground v.1.15,2013-09-13 16:11:00,
2013-09-13 12:16:00,73.5,54.8,29.78,NW,323,6.0,7.0,52,0.00,,,0.00,Wunderground v.1.15,2013-09-13 16:16:00,
2013-09-13 12:22:00,73.1,53.9,29.78,NW,321,6.0,9.0,51,0.00,,,0.00,Wunderground v.1.15,2013-09-13 16:22:00,
2013-09-13 12:28:00,75.1,55.7,29.78,NW,313,6.0,9.0,51,0.00,,,0.00,Wunderground v.1.15,2013-09-13 16:28:00,
2013-09-13 12:35:00,73.4,53.1,29.78,NW,318,6.0,10.0,49,0.00,,,0.00,Wunderground v.1.15,2013-09-13 16:35:00,
2013-09-13 12:41:00,72.0,54.4,29.78,North,360,2.0,7.0,54,0.00,,,0.00,Wunderground v.1.15,2013-09-13 16:41:00,
2013-09-13 12:46:00,72.9,53.7,29.78,West,268,2.0,7.0,51,0.00,,,0.00,Wunderground v.1.15,2013-09-13 16:46:00,
2013-09-13 12:52:00,73.4,54.7,29.78,WNW,296,5.0,8.0,52,0.00,,,0.00,Wunderground v.1.15,2013-09-13 16:52:00,
2013-09-13 12:58:00,73.9,54.1,29.78,WNW,298,6.0,9.0,50,0.00,,,0.00,Wunderground v.1.15,2013-09-13 16:58:00,
2013-09-13 13:03:00,73.4,53.1,29.78,NNW,328,6.0,7.0,49,0.00,,,0.00,Wunderground v.1.15,2013-09-13 17:03:00,
2013-09-13 13:08:00,73.5,52.0,29.77,NW,313,4.0,7.0,47,0.00,,,0.00,Wunderground v.1.15,2013-09-13 17:08:00,
2013-09-13 13:14:00,73.0,53.3,29.77,WNW,283,6.0,13.0,50,0.00,,,0.00,Wunderground v.1.15,2013-09-13 17:14:00,
2013-09-13 13:19:00,74.7,54.3,29.77,WNW,301,7.0,13.0,49,0.00,,,0.00,Wunderground v.1.15,2013-09-13 17:19:00,
2013-09-13 13:25:00,74.2,53.2,29.77,NW,317,7.0,12.0,48,0.00,,,0.00,Wunderground v.1.15,2013-09-13 17:25:00,
2013-09-13 13:31:00,74.8,52.6,29.77,WNW,292,8.0,8.0,46,0.00,,,0.00,Wunderground v.1.15,2013-09-13 17:31:00,
2013-09-13 13:37:00,75.2,54.7,29.77,WNW,293,7.0,9.0,49,0.00,,,0.00,Wunderground v.1.15,2013-09-13 17:37:00,
2013-09-13 13:42:00,73.8,53.4,29.77,WNW,292,5.0,7.0,49,0.00,,,0.00,Wunderground v.1.15,2013-09-13 17:42:00,
2013-09-13 13:47:00,72.7,54.1,29.77,NW,319,5.0,7.0,52,0.00,,,0.00,Wunderground v.1.15,2013-09-13 17:47:00,
2013-09-13 13:53:00,74.5,54.6,29.77,WNW,303,4.0,7.0,50,0.00,,,0.00,Wunderground v.1.15,2013-09-13 17:53:00,
2013-09-13 13:58:00,75.7,52.8,29.77,WNW,290,4.0,8.0,45,0.00,,,0.00,Wunderground v.1.15,2013-09-13 17:58:00,
2013-09-13 14:04:00,76.4,52.9,29.77,WNW,297,5.0,10.0,44,0.00,,,0.00,Wunderground v.1.15,2013-09-13 18:04:00,
2013-09-13 14:09:00,76.9,51.4,29.77,West,273,8.0,21.0,41,0.00,,,0.00,Wunderground v.1.15,2013-09-13 18:09:00,
2013-09-13 14:14:00,74.1,48.2,29.77,West,273,9.0,17.0,40,0.00,,,0.00,Wunderground v.1.15,2013-09-13 18:14:00,
2013-09-13 14:21:00,71.8,50.5,29.77,NW,322,8.0,8.0,47,0.00,,,0.00,Wunderground v.1.15,2013-09-13 18:21:00,
2013-09-13 14:27:00,71.3,51.1,29.77,WNW,303,5.0,8.0,49,0.00,,,0.00,Wunderground v.1.15,2013-09-13 18:27:00,
2013-09-13 14:32:00,71.2,51.1,29.77,NNW,342,5.0,7.0,49,0.00,,,0.00,Wunderground v.1.15,2013-09-13 18:32:00,
2013-09-13 14:37:00,71.5,51.9,29.77,North,355,4.0,7.0,50,0.00,,,0.00,Wunderground v.1.15,2013-09-13 18:37:00,
2013-09-13 14:42:00,72.2,52.5,29.77,WNW,293,1.0,7.0,50,0.00,,,0.00,Wunderground v.1.15,2013-09-13 18:42:00,
2013-09-13 14:47:00,73.5,53.7,29.77,NW,306,1.0,7.0,50,0.00,,,0.00,Wunderground v.1.15,2013-09-13 18:47:00,
2013-09-13 14:54:00,74.1,52.6,29.77,NNE,22,2.0,7.0,47,0.00,,,0.00,Wunderground v.1.15,2013-09-13 18:54:00,
2013-09-13 15:00:00,75.3,53.7,29.77,WNW,283,3.0,11.0,47,0.00,,,0.00,Wunderground v.1.15,2013-09-13 19:00:00,
2013-09-13 15:05:00,74.4,49.8,29.77,West,277,5.0,12.0,42,0.00,,,0.00,Wunderground v.1.15,2013-09-13 19:05:00,
2013-09-13 15:10:00,73.8,51.1,29.77,WNW,302,6.0,7.0,45,0.00,,,0.00,Wunderground v.1.15,2013-09-13 19:10:00,
2013-09-13 15:16:00,74.6,51.9,29.77,WNW,300,6.0,12.0,45,0.00,,,0.00,Wunderground v.1.15,2013-09-13 19:16:00,
2013-09-13 15:21:00,74.4,52.3,29.77,WNW,300,6.0,7.0,46,0.00,,,0.00,Wunderground v.1.15,2013-09-13 19:21:00,
2013-09-13 15:26:00,73.5,51.4,29.76,WNW,288,6.0,7.0,46,0.00,,,0.00,Wunderground v.1.15,2013-09-13 19:26:00,
2013-09-13 15:32:00,74.0,51.9,29.76,West,274,7.0,10.0,46,0.00,,,0.00,Wunderground v.1.15,2013-09-13 19:32:00,
2013-09-13 15:37:00,73.9,51.2,29.76,NW,309,7.0,10.0,45,0.00,,,0.00,Wunderground v.1.15,2013-09-13 19:37:00,
2013-09-13 15:43:00,74.7,52.5,29.76,WNW,288,5.0,7.0,46,0.00,,,0.00,Wunderground v.1.15,2013-09-13 19:43:00,
2013-09-13 15:49:00,75.4,53.2,29.75,WNW,296,4.0,8.0,46,0.00,,,0.00,Wunderground v.1.15,2013-09-13 19:49:00,
2013-09-13 15:54:00,75.8,52.9,29.75,West,274,4.0,8.0,45,0.00,,,0.00,Wunderground v.1.15,2013-09-13 19:54:00,
2013-09-13 15:59:00,75.4,53.2,29.76,NNW,338,4.0,8.0,46,0.00,,,0.00,Wunderground v.1.15,2013-09-13 19:59:00,
2013-09-13 16:05:00,76.0,51.2,29.75,NNW,348,4.0,7.0,42,0.00,,,0.00,Wunderground v.1.15,2013-09-13 20:05:00,
2013-09-13 16:10:00,75.9,51.8,29.75,NW,314,3.0,3.0,43,0.00,,,0.00,Wunderground v.1.15,2013-09-13 20:10:00,
2013-09-13 16:15:00,75.5,51.4,29.76,NW,320,4.0,7.0,43,0.00,,,0.00,Wunderground v.1.15,2013-09-13 20:15:00,
2013-09-13 16:20:00,73.5,50.2,29.76,NW,320,4.0,7.0,44,0.00,,,0.00,Wunderground v.1.15,2013-09-13 20:20:00,
2013-09-13 16:26:00,72.8,50.8,29.76,NW,321,4.0,9.0,46,0.00,,,0.00,Wunderground v.1.15,2013-09-13 20:26:00,
2013-09-13 16:32:00,70.8,53.3,29.78,NW,323,6.0,7.0,54,0.00,,,0.00,Wunderground v.1.15,2013-09-13 20:32:00,
2013-09-13 16:38:00,67.1,55.4,29.77,North,360,7.0,7.0,66,0.00,,,0.00,Wunderground v.1.15,2013-09-13 20:38:00,
2013-09-13 16:43:00,65.5,54.7,29.77,NNW,340,5.0,7.0,68,0.00,,,0.00,Wunderground v.1.15,2013-09-13 20:43:00,
2013-09-13 16:48:00,65.4,54.2,29.77,NW,326,5.0,7.0,67,0.00,,,0.00,Wunderground v.1.15,2013-09-13 20:48:00,
2013-09-13 16:53:00,65.6,53.9,29.78,North,355,4.0,7.0,66,0.00,,,0.00,Wunderground v.1.15,2013-09-13 20:53:00,
2013-09-13 16:58:00,66.5,53.9,29.78,North,5,4.0,7.0,64,0.00,,,0.00,Wunderground v.1.15,2013-09-13 20:58:00,
2013-09-13 17:04:00,68.1,53.7,29.77,NW,309,5.0,7.0,60,0.00,,,0.00,Wunderground v.1.15,2013-09-13 21:04:00,
2013-09-13 17:10:00,69.1,52.7,29.77,NNW,342,5.0,10.0,56,0.00,,,0.00,Wunderground v.1.15,2013-09-13 21:10:00,
2013-09-13 17:16:00,69.4,53.5,29.77,NW,321,5.0,10.0,57,0.00,,,0.00,Wunderground v.1.15,2013-09-13 21:16:00,
2013-09-13 17:22:00,69.7,53.8,29.77,WNW,296,5.0,11.0,57,0.00,,,0.00,Wunderground v.1.15,2013-09-13 21:22:00,
2013-09-13 17:27:00,69.8,54.4,29.77,North,5,5.0,11.0,58,0.00,,,0.00,Wunderground v.1.15,2013-09-13 21:27:00,
2013-09-13 17:33:00,69.6,55.6,29.78,NW,305,4.0,7.0,61,0.00,,,0.00,Wunderground v.1.15,2013-09-13 21:33:00,
2013-09-13 17:39:00,69.5,55.0,29.78,NW,318,3.0,7.0,60,0.00,,,0.00,Wunderground v.1.15,2013-09-13 21:39:00,
2013-09-13 17:44:00,69.2,55.2,29.79,North,350,3.0,7.0,61,0.00,,,0.00,Wunderground v.1.15,2013-09-13 21:44:00,
2013-09-13 17:50:00,68.9,54.9,29.79,WNW,292,4.0,4.0,61,0.00,,,0.00,Wunderground v.1.15,2013-09-13 21:50:00,
2013-09-13 17:56:00,68.6,54.2,29.79,WNW,285,5.0,7.0,60,0.00,,,0.00,Wunderground v.1.15,2013-09-13 21:56:00,
2013-09-13 18:04:00,66.7,53.3,29.80,WNW,290,5.0,9.0,62,0.00,,,0.00,Wunderground v.1.15,2013-09-13 22:04:00,
2013-09-13 18:11:00,65.6,52.7,29.81,West,281,6.0,7.0,63,0.00,,,0.00,Wunderground v.1.15,2013-09-13 22:11:00,
2013-09-13 18:16:00,65.2,52.7,29.81,NW,321,6.0,7.0,64,0.00,,,0.00,Wunderground v.1.15,2013-09-13 22:16:00,
2013-09-13 18:21:00,65.6,53.1,29.81,WNW,294,4.0,7.0,64,0.00,,,0.00,Wunderground v.1.15,2013-09-13 22:21:00,
2013-09-13 18:28:00,65.8,52.9,29.82,North,360,3.0,7.0,63,0.00,,,0.00,Wunderground v.1.15,2013-09-13 22:28:00,
2013-09-13 18:36:00,65.3,52.4,29.82,NW,321,3.0,7.0,63,0.00,,,0.00,Wunderground v.1.15,2013-09-13 22:36:00,
2013-09-13 18:41:00,64.7,52.7,29.83,NW,322,2.0,7.0,65,0.00,,,0.00,Wunderground v.1.15,2013-09-13 22:41:00,
2013-09-13 18:47:00,64.1,52.5,29.83,West,279,1.0,7.0,66,0.00,,,0.00,Wunderground v.1.15,2013-09-13 22:47:00,
2013-09-13 18:53:00,63.5,52.7,29.83,NW,321,1.0,7.0,68,0.00,,,0.00,Wunderground v.1.15,2013-09-13 22:53:00,
2013-09-13 18:58:00,63.1,52.8,29.83,NW,321,2.0,7.0,69,0.00,,,0.00,Wunderground v.1.15,2013-09-13 22:58:00,
2013-09-13 19:03:00,62.8,52.5,29.84,NNW,327,2.0,7.0,69,0.00,,,0.00,Wunderground v.1.15,2013-09-13 23:03:00,
2013-09-13 19:09:00,62.7,52.8,29.84,NW,312,3.0,8.0,70,0.00,,,0.00,Wunderground v.1.15,2013-09-13 23:09:00,
2013-09-13 19:14:00,62.4,52.9,29.84,WNW,300,3.0,7.0,71,0.00,,,0.00,Wunderground v.1.15,2013-09-13 23:14:00,
2013-09-13 19:20:00,62.5,53.0,29.84,NW,304,3.0,7.0,71,0.00,,,0.00,Wunderground v.1.15,2013-09-13 23:20:00,
2013-09-13 19:25:00,62.5,52.6,29.84,NW,315,3.0,7.0,70,0.00,,,0.00,Wunderground v.1.15,2013-09-13 23:25:00,
2013-09-13 19:30:00,62.5,53.0,29.84,NW,309,2.0,7.0,71,0.00,,,0.00,Wunderground v.1.15,2013-09-13 23:30:00,
2013-09-13 19:35:00,62.3,52.8,29.85,NW,324,2.0,7.0,71,0.00,,,0.00,Wunderground v.1.15,2013-09-13 23:35:00,
2013-09-13 19:40:00,62.3,52.8,29.85,North,355,2.0,2.0,71,0.00,,,0.00,Wunderground v.1.15,2013-09-13 23:40:00,
2013-09-13 19:45:00,62.2,53.1,29.85,NNW,343,2.0,7.0,72,0.00,,,0.00,Wunderground v.1.15,2013-09-13 23:45:00,
2013-09-13 19:51:00,61.9,52.8,29.86,NNW,342,1.0,7.0,72,0.00,,,0.00,Wunderground v.1.15,2013-09-13 23:51:00,
2013-09-13 19:56:00,61.9,52.8,29.86,NNW,343,1.0,7.0,72,0.00,,,0.00,Wunderground v.1.15,2013-09-13 23:56:00,
2013-09-13 20:01:00,61.9,52.8,29.86,NNW,343,0.0,7.0,72,0.00,,,0.00,Wunderground v.1.15,2013-09-14 00:01:00,
2013-09-13 20:06:00,61.7,53.0,29.86,NNW,343,0.0,7.0,73,0.00,,,0.00,Wunderground v.1.15,2013-09-14 00:06:00,
2013-09-13 20:12:00,61.4,51.9,29.87,WNW,289,1.0,7.0,71,0.00,,,0.00,Wunderground v.1.15,2013-09-14 00:12:00,
2013-09-13 20:17:00,61.4,51.9,29.87,NW,313,1.0,7.0,71,0.00,,,0.00,Wunderground v.1.15,2013-09-14 00:17:00,
2013-09-13 20:22:00,61.2,51.7,29.88,NW,313,0.0,7.0,71,0.00,,,0.00,Wunderground v.1.15,2013-09-14 00:22:00,
2013-09-13 20:28:00,60.7,51.6,29.88,NW,313,0.0,7.0,72,0.00,,,0.00,Wunderground v.1.15,2013-09-14 00:28:00,
2013-09-13 20:35:00,59.9,51.2,29.88,NW,313,0.0,7.0,73,0.00,,,0.00,Wunderground v.1.15,2013-09-14 00:35:00,
2013-09-13 20:40:00,59.5,50.5,29.88,NW,313,0.0,7.0,72,0.00,,,0.00,Wunderground v.1.15,2013-09-14 00:40:00,
2013-09-13 20:46:00,59.2,50.2,29.89,NW,313,0.0,7.0,72,0.00,,,0.00,Wunderground v.1.15,2013-09-14 00:46:00,
2013-09-13 20:51:00,58.9,50.6,29.89,NW,313,0.0,7.0,74,0.00,,,0.00,Wunderground v.1.15,2013-09-14 00:51:00,
2013-09-13 20:59:00,58.3,50.0,29.89,NW,316,0.0,7.0,74,0.00,,,0.00,Wunderground v.1.15,2013-09-14 00:59:00,
2013-09-13 21:05:00,57.8,50.3,29.89,NW,316,0.0,7.0,76,0.00,,,0.00,Wunderground v.1.15,2013-09-14 01:05:00,
2013-09-13 21:10:00,57.6,49.7,29.90,North,349,0.0,7.0,75,0.00,,,0.00,Wunderground v.1.15,2013-09-14 01:10:00,
2013-09-13 21:15:00,57.8,49.9,29.90,North,351,0.0,7.0,75,0.00,,,0.00,Wunderground v.1.15,2013-09-14 01:15:00,
2013-09-13 21:20:00,58.4,49.8,29.90,NNW,344,1.0,1.0,73,0.00,,,0.00,Wunderground v.1.15,2013-09-14 01:20:00,
2013-09-13 21:27:00,59.2,49.8,29.90,NNW,327,2.0,7.0,71,0.00,,,0.00,Wunderground v.1.15,2013-09-14 01:27:00,
2013-09-13 21:32:00,59.5,50.1,29.90,NNW,340,2.0,7.0,71,0.00,,,0.00,Wunderground v.1.15,2013-09-14 01:32:00,
2013-09-13 21:38:00,59.2,49.8,29.91,NW,319,2.0,7.0,71,0.00,,,0.00,Wunderground v.1.15,2013-09-14 01:38:00,
2013-09-13 21:43:00,59.0,50.0,29.91,NW,317,1.0,7.0,72,0.00,,,0.00,Wunderground v.1.15,2013-09-14 01:43:00,
2013-09-13 21:48:00,58.6,50.0,29.91,NW,312,1.0,7.0,73,0.00,,,0.00,Wunderground v.1.15,2013-09-14 01:48:00,
2013-09-13 21:53:00,58.2,50.0,29.91,NW,304,2.0,7.0,74,0.00,,,0.00,Wunderground v.1.15,2013-09-14 01:53:00,
2013-09-13 21:59:00,58.4,49.8,29.92,NW,311,2.0,7.0,73,0.00,,,0.00,Wunderground v.1.15,2013-09-14 01:59:00,
2013-09-13 22:05:00,58.2,50.0,29.92,NW,319,1.0,7.0,74,0.00,,,0.00,Wunderground v.1.15,2013-09-14 02:05:00,
2013-09-13 22:10:00,58.5,49.9,29.92,NW,322,2.0,2.0,73,0.00,,,0.00,Wunderground v.1.15,2013-09-14 02:10:00,
2013-09-13 22:15:00,58.6,50.0,29.91,NW,319,2.0,7.0,73,0.00,,,0.00,Wunderground v.1.15,2013-09-14 02:15:00,
2013-09-13 22:21:00,58.4,50.1,29.91,NW,317,2.0,7.0,74,0.00,,,0.00,Wunderground v.1.15,2013-09-14 02:21:00,
2013-09-13 22:26:00,58.3,50.0,29.92,NW,317,1.0,7.0,74,0.00,,,0.00,Wunderground v.1.15,2013-09-14 02:26:00,
2013-09-13 22:31:00,58.0,49.8,29.92,NW,317,1.0,7.0,74,0.00,,,0.00,Wunderground v.1.15,2013-09-14 02:31:00,
2013-09-13 22:36:00,57.8,49.9,29.92,NW,317,1.0,7.0,75,0.00,,,0.00,Wunderground v.1.15,2013-09-14 02:36:00,
2013-09-13 22:42:00,57.7,49.8,29.92,NW,319,0.0,7.0,75,0.00,,,0.00,Wunderground v.1.15,2013-09-14 02:42:00,
2013-09-13 22:47:00,57.5,50.0,29.93,NW,319,0.0,7.0,76,0.00,,,0.00,Wunderground v.1.15,2013-09-14 02:47:00,
2013-09-13 22:52:00,57.1,50.0,29.93,NW,319,0.0,7.0,77,0.00,,,0.00,Wunderground v.1.15,2013-09-14 02:52:00,
2013-09-13 22:58:00,56.0,49.6,29.93,NW,319,0.0,7.0,79,0.00,,,0.00,Wunderground v.1.15,2013-09-14 02:58:00,
2013-09-13 23:03:00,55.5,49.4,29.93,NW,319,0.0,7.0,80,0.00,,,0.00,Wunderground v.1.15,2013-09-14 03:03:00,
2013-09-13 23:08:00,55.4,49.7,29.93,NW,319,0.0,7.0,81,0.00,,,0.00,Wunderground v.1.15,2013-09-14 03:08:00,
2013-09-13 23:14:00,55.3,49.9,29.93,NW,319,0.0,7.0,82,0.00,,,0.00,Wunderground v.1.15,2013-09-14 03:14:00,
2013-09-13 23:21:00,55.7,50.3,29.93,NW,319,0.0,7.0,82,0.00,,,0.00,Wunderground v.1.15,2013-09-14 03:21:00,
2013-09-13 23:26:00,55.9,50.2,29.94,NW,319,1.0,7.0,81,0.00,,,0.00,Wunderground v.1.15,2013-09-14 03:26:00,
2013-09-13 23:31:00,55.9,50.5,29.94,NW,319,0.0,7.0,82,0.00,,,0.00,Wunderground v.1.15,2013-09-14 03:31:00,
2013-09-13 23:37:00,55.3,49.9,29.94,NW,319,0.0,7.0,82,0.00,,,0.00,Wunderground v.1.15,2013-09-14 03:37:00,
2013-09-13 23:42:00,54.8,49.4,29.93,NW,319,0.0,7.0,82,0.00,,,0.00,Wunderground v.1.15,2013-09-14 03:42:00,
2013-09-13 23:50:00,53.8,49.1,29.94,NW,319,0.0,7.0,84,0.00,,,0.00,Wunderground v.1.15,2013-09-14 03:50:00,
2013-09-13 23:55:00,53.2,48.5,29.94,NW,319,0.0,7.0,84,0.00,,,0.00,Wunderground v.1.15,2013-09-14 03:55:00,